Location: Kailua
(21.4020°N, 157.7390°W)
Time: 00:25:59
(UTC-10:00)

Daily predictions for brighter satellites

Satellite Brightness Start Highest point End
(mag) Time Altitude Azimuth Time Altitude Azimuth Time Altitude Azimuth
USA 215 4.3 03:21:46 10° ESE 03:27:09 39° ENE 03:27:09 39° ENE
Cosmos 2297 Rocket 4.2 03:35:25 22° NE 03:35:25 22° NE 03:37:27 10° NNE
CZ-4C R/B 3.5 03:33:55 54° NE 03:34:12 54° ENE 03:41:58 10° SE
Cosmos 2219 Rocket 4.1 03:36:37 13° NNE 03:40:39 26° ENE 03:45:19 10° SE
ADEOS Rocket 3.9 03:51:10 10° NNE 03:57:40 48° E 04:00:40 28° SSE
Cosmos 1607 3.9 04:13:01 74° SE 04:13:01 74° SE 04:18:40 10° SSE
Palapa 6 Rocket 4.3 04:15:31 39° E 04:15:31 39° E 04:18:11 10° E
Cosmos 2333 Rocket 3.1 04:12:46 10° N 04:18:13 46° ENE 04:23:34 10° SE
Hubble Space Telescope 2.0 04:27:38 38° NE 04:27:38 38° NE 04:30:48 10° E
ISS -1.0 04:30:11 25° ENE 04:30:11 25° ENE 04:32:16 10° ESE
OAO 1 4.3 04:32:31 79° NW 04:32:52 89° NNE 04:38:21 10° ESE
GOES 2 Rocket 4.4 04:32:09 41° NW 04:33:27 47° N 04:40:45 10° ENE
Meteor 2-4 Rocket 3.6 04:33:23 59° SSW 04:34:26 75° W 04:40:18 10° N
Cosmos 923 Rocket 4.1 04:29:07 10° N 04:34:28 75° ENE 04:39:46 10° SSE
Meteor 1-23 Rocket 4.0 04:34:48 46° SSW 04:36:31 80° W 04:42:09 10° N
Okean-O 2.8 04:33:59 10° NNE 04:38:24 72° E 04:40:10 36° S
GPS 2-15 Rocket1 3.1 04:41:03 68° S 04:41:09 68° S 04:45:50 10° E
CZ-4B R/B 4.1 04:36:36 10° N 04:40:01 33° NW 04:40:01 33° NW
Cosmos 2237 Rocket 2.4 04:39:28 10° N 04:45:04 68° ENE 04:50:37 10° SSE
FALCON 9 R/B 2.9 04:43:49 43° W 04:45:58 65° NNW 05:04:35 10° ENE
Cosmos 1898 Rocket 3.4 04:44:59 48° SW 04:46:22 70° WNW 04:51:40 10° N
Cosmos 2173 Rocket 4.4 04:44:42 10° N 04:50:43 61° E 04:56:48 10° SSE
SL-8 R/B 4.1 04:52:07 42° SSW 04:52:07 42° SSW 04:56:10 10° SSE
Fermi 4.0 04:52:38 50° NNW 04:52:56 51° N 04:56:54 10° ENE
Cosmos 773 Rocket 4.3 04:53:53 41° SW 04:53:53 41° SW 04:57:52 10° S
Meteor PRIRODA 3.5 04:50:19 10° N 04:54:01 86° WNW 04:54:48 54° SSW
ATLAS 5 CENTAUR R/B 3.4 04:48:10 10° NNW 04:54:16 50° ENE 05:00:38 10° SE
Cosmos 858 Rocket 4.5 04:55:39 33° SW 04:57:52 59° WNW 05:03:03 10° N
Cosmos 1980 3.6 04:52:55 10° NNW 04:58:36 79° WSW 05:04:15 10° SSE
MOS 1 Rocket 3.7 04:54:45 10° NNE 04:59:42 73° ESE 05:04:56 10° S
Cosmos 1459 Rocket 4.1 04:53:45 10° N 05:00:07 79° E 05:06:22 10° S
Cosmos 1937 Rocket 3.4 04:57:36 16° SSW 05:01:42 71° WNW 05:06:55 10° N
COBE Rocket 3.9 04:57:13 10° NNE 05:01:56 73° E 05:06:33 10° S
NOSS 3-2 (A) 4.1 04:55:19 10° NNW 05:03:14 89° WSW 05:11:27 10° SSE
SL-16 R/B 3.7 04:58:52 10° N 05:04:06 37° ENE 05:09:18 10° SE
CZ-4B R/B 3.9 05:01:19 10° NNE 05:05:08 71° E 05:08:48 10° S
Meteor 2-9 Rocket 4.2 05:02:00 10° N 05:07:44 90° ENE 05:13:34 10° S
USA 238 DEB 4.4 05:06:16 27° W 05:08:03 30° WSW 05:14:02 10° S
ADEOS II 2.2 05:03:05 10° N 05:08:07 48° WNW 05:13:09 10° SSW
USA 238 4.4 05:06:14 27° W 05:08:09 31° WSW 05:14:09 10° S
Cosmos 1626 Rocket 3.8 05:05:01 10° S 05:09:24 72° E 05:13:46 10° N
USA 215 3.7 05:04:39 10° S 05:10:36 37° SW 05:14:33 20° WNW
Radarsat Rocket 4.5 05:07:08 10° NNE 05:13:25 64° ESE 05:19:14 10° S
NOAA 6 4.3 05:08:26 10° NNE 05:13:37 73° ESE 05:18:46 10° S
Centaur D-1AR AC-36 1.3 05:13:09 29° W 05:15:01 82° N 05:18:13 10° E
Cosmos 2297 Rocket 4.0 05:17:18 13° NW 05:17:18 13° NW 05:19:07 10° NNW
NOSS 0 Rocket 4.2 05:11:00 10° NW 05:16:51 44° WSW 05:22:41 10° S
Meteor 2-15 4.4 05:14:53 10° SSW 05:20:49 58° W 05:26:46 10° N
CZ-4C R/B 3.9 05:19:21 19° WNW 05:22:32 24° WSW 05:28:35 10° SSW
Cosmos 1606 Rocket 4.1 05:19:10 10° NNW 05:23:05 34° W 05:27:00 10° SSW
Cosmos 2219 Rocket 3.1 05:19:45 10° NW 05:24:22 26° WSW 05:28:58 10° SSW
Cosmos 2112 Rocket 4.2 05:22:43 10° NNW 05:27:43 46° W 05:32:41 10° S
NOSS 2-2 (D) 4.1 05:26:34 20° WSW 05:28:36 32° WNW 05:32:22 10° N
Cosmos 292 Rocket 3.7 05:24:43 10° NNW 05:29:34 79° WSW 05:34:24 10° S
Meteor 1-31 Rocket 3.2 05:28:22 10° N 05:32:02 39° WNW 05:35:42 10° SW
Cosmos 1602 Rocket 3.6 05:27:48 10° SSW 05:32:10 55° W 05:36:31 10° N
Cosmos 1680 Rocket 4.1 05:27:53 10° NW 05:32:33 33° W 05:37:12 10° SSW
Cosmos 1726 Rocket 4.3 05:30:38 10° NNW 05:34:27 30° W 05:38:13 10° SSW
Aureole 2 Rocket 3.7 05:32:47 10° N 05:35:49 38° ENE 05:38:35 10° SE
Star 63D 3.7 05:34:42 19° W 05:36:22 58° SSW 05:41:03 10° ESE
Genesis I 3.7 05:33:58 10° SW 05:37:43 41° WNW 05:41:31 10° N
GPS 2-14 Rocket1 4.0 05:36:03 10° SW 05:39:46 33° SSE 05:43:27 10° E
NOSS 3-2 (C) 4.1 05:32:52 10° NW 05:40:39 62° WSW 05:48:42 10° SSE
CSL-04 Rocket 4.1 05:36:28 10° NNE 05:41:42 64° ESE 05:46:58 10° S
ADEOS Rocket 4.4 05:38:03 10° NNW 05:42:31 19° WNW 05:46:44 10° WSW
GPS 2-18 Rocket1 3.2 05:39:34 14° WSW 05:42:51 73° S 05:46:44 10° E
Centaur D-1A AC-31 1.9 05:43:39 12° W 05:46:27 33° SSW 05:50:15 10° SE
Thor Agena Rocket 4.5 05:42:44 10° SSW 05:47:05 26° W 05:51:27 10° NW
Cosmos 2061 Rocket 4.5 05:41:48 10° NNW 05:47:34 38° W 05:53:23 10° SSW
Cosmos 1515 4.3 05:44:34 10° SSW 05:48:04 34° W 05:51:34 10° NNW
Cosmos 1802 Rocket 4.4 05:46:50 10° NNW 05:52:26 39° W 05:58:02 10° SSW
USA 234 3.8 05:46:23 10° NE 05:52:51 62° SE 05:59:16 10° SSW
Cosmos 2263 Rocket 3.1 05:49:41 10° S 05:55:05 53° ESE 06:00:28 10° NNE
OTV 4 3.0 05:53:30 10° NNW 05:55:13 15° NNE 05:56:55 10° ENE
SL-24 R/B 4.4 05:54:47 10° N 05:58:28 35° WNW 06:01:52 10° SW
CZ-4 R/B 3.4 05:56:40 10° NNE 06:00:22 35° E 06:04:05 10° SSE
Centaur D-1AR AC-39 4.2 05:45:14 10° WSW 06:19:26 58° S 06:24:47 10° E
